Location: ??????
(41.3164°N, 22.6615°E)
Time: 21:29:23
(UTC+00:00)

IRS-1C Rocket - Pass Details

Date: 16 October 2021
Orbit: 801 x 805 km, 98.9° (Epoch: 29 November)

Event Time Altitude Azimuth Distance (km) Brightness Sun altitude
Exits shadow 17:08:15 - 149° (SSE) 2,806 6.6 -16.0°
Reaches altitude 10° 17:09:23 10° 146° (SE) 2,371 6.2 -16.2°
Maximum altitude 17:14:27 53° 71° (ENE) 983 4.2 -17.2°
Drops below altitude 10° 17:19:34 10° 356° (N) 2,388 6.6 -18.2°
Sets 17:21:57 0° 352° (N) 3,324 7.5 -18.6°
